Home   Weather   Tokyo   Past weeks

Flag for Japan Past Weather in Tokyo, Japan — Yesterday and Last 2 Weeks

Now
49 °F

Cool.


Feels Like: 46 °F
Forecast: 40 / 47 °F
Wind: 6 mph from South

Location: Tokyo

Current Time: Feb 26, 2017 at 9:24:21 pm

Latest Report: Feb 26, 2017 at 8:00 pm


Visibility: N/A

Pressure: 30.10 "Hg

Humidity: 59%

Dew Point: 35 °F

Location of TokyoLocation

Past Weather in Tokyo — Graph

°F

Tokyo Temperature Yesterday

Maximum temperature yesterday: 53 °F (at 2:00 pm)
Minimum temperature yesterday: 39 °F (at 6:00 am)
Average temperature yesterday: 45 °F

High & Low Weather Summary for the Past Weeks

 TemperatureHumidityPressure
High68 °F (Feb 17, 1:00 pm)97% (Feb 20, 7:00 pm)30.36 "Hg (Feb 20, 7:00 pm)
Low32 °F (Feb 12, 6:00 am)18% (Feb 15, 2:00 pm)29.29 "Hg (Feb 20, 5:00 pm)
Average46 °F48%30.00 "Hg
* Reported Feb 11 8:00 pm — Feb 26 8:00 pm, Tokyo, Weather by CustomWeather, © 2017

Note: Actual official high and low records may vary slightly from our data, if they occured in-between our weather recording intervals... More about our weather records

Advertising

Tokyo Weather History for the Previous 24 Hours

Scroll right to see more
 ConditionsComfort  
Time TempWeatherWind HumidityBarometerVisibility
8:00 pm
Sun, Feb 26
49 °FCool.6 mph59%30.10 "HgN/A
7:00 pm48 °FCool.6 mph41%30.07 "HgN/A
6:00 pm49 °FOvercast.6 mph40%30.06 "Hg12 mi
5:00 pm51 °FCool.5 mph37%30.04 "HgN/A
4:00 pm53 °FCool.5 mph28%30.03 "HgN/A
3:00 pm55 °FOvercast.5 mph34%30.03 "Hg12 mi
2:00 pm56 °FRefreshingly cool.5 mph31%30.03 "HgN/A
1:00 pm57 °FRefreshingly cool.3 mph30%30.04 "HgN/A
12:00 pm55 °FPartly sunny.2 mph33%30.06 "Hg16 mi
11:00 am51 °FCool.5 mph34%30.09 "HgN/A
10:00 am50 °FCool.7 mph41%30.09 "HgN/A
9:00 am47 °FPassing clouds.6 mph47%30.11 "Hg19 mi
8:00 am45 °FQuite cool.5 mph56%30.10 "HgN/A
7:00 am39 °FChilly.5 mph71%30.09 "HgN/A
6:00 am40 °FPassing clouds.5 mph69%30.06 "Hg12 mi
5:00 am40 °FChilly.5 mph77%30.05 "HgN/A
4:00 am40 °FQuite cool.5 mph76%30.04 "HgN/A
3:00 am42 °FPassing clouds.5 mph76%30.03 "Hg12 mi
2:00 am42 °FQuite cool.3 mph81%30.02 "HgN/A
1:00 am42 °FQuite cool.5 mph87%30.02 "HgN/A
12:00 am43 °FQuite cool.3 mph89%30.02 "HgN/A
11:00 pm
Sat, Feb 25
44 °FQuite cool.5 mph84%30.02 "HgN/A
10:00 pm45 °FCool.6 mph84%30.02 "HgN/A
9:00 pm45 °FPassing clouds.3 mph81%30.02 "Hg12 mi
Weather by CustomWeather, © 2017

See weather overviewHow to use our weather pages

LIVE ANNULAR SOLAR ECLIPSE – Watch the eclipse as it happens